This is the latest recevied weather packets stored in our database for station/object DO6MJ-1. If no packets are shown the sender has not sent any weather packets the latest 10 day(s).
| Time | Temp. | Humidity | Pressure | Rain* | Wind** | Luminosity | Snow |
|---|---|---|---|---|---|---|---|
| 1787675061 | 24.44° C | 44% | 1009 hPa | 0 mm | - | - | - |
| 1787673861 | 25° C | 44% | 1009 hPa | 0 mm | - | - | - |
| 1787672660 | 25° C | 44% | 1009 hPa | 0 mm | - | - | - |
| 1787671460 | 25° C | 45% | 1008.9 hPa | 0 mm | - | - | - |
| 1787670260 | 25.56° C | 45% | 1009.1 hPa | 0 mm | - | - | - |
| 1787669060 | 25° C | 45% | 1009 hPa | 0 mm | - | - | - |
| 1787667859 | 24.44° C | 45% | 1008.9 hPa | 0 mm | - | - | - |
| 1787666659 | 25° C | 45% | 1008.9 hPa | 0 mm | - | - | - |
| 1787665459 | 24.44° C | 46% | 1009.1 hPa | 0 mm | - | - | - |
| 1787664259 | 23.89° C | 47% | 1009.1 hPa | 0 mm | - | - | - |
| 1787663058 | 24.44° C | 48% | 1009.2 hPa | 0 mm | - | - | - |
| 1787661858 | 23.89° C | 49% | 1009.4 hPa | 0 mm | - | - | - |
| 1787660658 | 23.89° C | 49% | 1009.5 hPa | 0 mm | - | - | - |
| 1787659457 | 23.89° C | 51% | 1009.6 hPa | 0 mm | - | - | - |
| 1787658257 | 23.33° C | 52% | 1009.6 hPa | 0 mm | - | - | - |
| 1787657057 | 23.33° C | 54% | 1010 hPa | 0 mm | - | - | - |
| 1787655857 | 22.78° C | 55% | 1010.1 hPa | 0 mm | - | - | - |
| 1787654656 | 22.78° C | 56% | 1010.2 hPa | 0 mm | - | - | - |
| 1787653456 | 22.22° C | 56% | 1010.4 hPa | 0 mm | - | - | - |
| 1787652256 | 21.67° C | 59% | 1010.4 hPa | 0 mm | - | - | - |
| 1787651055 | 21.11° C | 60% | 1010.4 hPa | 0 mm | - | - | - |
| 1787649855 | 20.56° C | 63% | 1010.6 hPa | 0 mm | - | - | - |
| 1787648655 | 20° C | 65% | 1010.6 hPa | 0 mm | - | - | - |
| 1787647455 | 19.44° C | 69% | 1010.7 hPa | 0 mm | - | - | - |
| 1787646254 | 18.33° C | 71% | 1010.7 hPa | 0 mm | - | - | - |
* Rain latest hour (hover to see other rain measurements)
** Current wind speed in m/s (hover to see current wind gust speed)